Mitchell, SD

6:11 AM CST on November 17, 2019 (GMT -0600)
Mitchell Municipal

Weather History for KMHE - July, 2019

Change the Weather History Date:

Wednesday, July 31, 2019

  Actual Average Record
Temperature  
Mean Temperature 73 °F 74 °F  
Max Temperature 82 °F 85 °F 109 °F (2002)
Min Temperature 64 °F 63 °F 47 °F (1903)
Degree Days  
Heating Degree Days 0 0  
Month to date heating degree days 0 0  
Since 1 June heating degree days 16 40  
Since 1 July heating degree days 0 5  
Cooling Degree Days 8 9  
Month to date cooling degree days 369 308  
Year to date cooling degree days 580 518  
Since 1 June cooling degree days 561 478  
Growing Degree Days 22 (Base 50)    
Moisture  
Dew Point 61 °F    
Average Humidity 71    
Maximum Humidity 87    
Minimum Humidity 54    
Precipitation  
Precipitation 0.00 in 0.09 in 1.45 in (1995)
Month to date precipitation 6.44 3.11  
Year to date precipitation 20.90 13.97  
Snow  
Snow 0.00 in - 0.00 in ()
Month to date snowfall 0.0  
Since 1 June snowfall 0.0  
Since 1 July snowfall 0.0  
Snow Depth 0.00 in    
Sea Level Pressure  
Sea Level Pressure 30.04 in    
Wind  
Wind Speed 13 mph (SE)    
Max Wind Speed 23 mph    
Max Gust Speed 33 mph    
Visibility 10 miles    
Events      
T = Trace of Precipitation, MM = Missing Value Source: NWS Daily Summary

Daily Weather History Graph

Daily Weather History Graph

Search for Another Location

Airport or City:

Astronomy

Jul. 31, 2019 Rise Set
Actual Time 6:19 AM CDT 8:56 PM CDT
Civil Twilight 5:46 AM CDT 9:29 PM CDT
Nautical Twilight 5:05 AM CDT 10:10 PM CDT
Astronomical Twilight 4:18 AM CDT 10:57 PM CDT
Moon 5:32 AM CDT (7/31) 8:58 PM CDT (7/31)
Length of Visible Light 15h 42m
Length of Day
14h 37m
Waning Crescent, 0% of the Moon is Illuminated
Jul 31
Waning Crescent
Jul 31
New
Aug 7
First Quarter
Aug 15
Full
Aug 23
Last Quarter

Hourly Weather History & Observations

Time (CDT) Temp. Heat Index Dew Point Humidity Pressure Visibility Wind Dir Wind Speed Gust Speed Precip Events Conditions
12:53 AM 64.9 °F - 60.1 °F 84% 30.06 in 10.0 mi SE 10.4 mph - N/A   Partly Cloudy
1:53 AM 64.0 °F - 57.9 °F 80% 30.05 in 10.0 mi SE 11.5 mph - N/A   Clear
2:53 AM 64.0 °F - 59.0 °F 84% 30.04 in 10.0 mi SE 10.4 mph - N/A   Clear
3:53 AM 64.0 °F - 57.9 °F 80% 30.04 in 10.0 mi SE 11.5 mph - N/A   Mostly Cloudy
4:53 AM 64.0 °F - 57.0 °F 78% 30.03 in 10.0 mi SE 10.4 mph - N/A   Scattered Clouds
5:53 AM 64.0 °F - 55.9 °F 75% 30.04 in 10.0 mi SE 12.7 mph - N/A   Mostly Cloudy
6:53 AM 64.9 °F - 55.9 °F 73% 30.04 in 10.0 mi SE 15.0 mph - N/A   Overcast
7:53 AM 66.0 °F - 55.9 °F 70% 30.06 in 10.0 mi SE 10.4 mph - N/A   Mostly Cloudy
8:53 AM 66.9 °F - 57.9 °F 73% 30.05 in 10.0 mi SSE 12.7 mph - N/A   Partly Cloudy
9:53 AM 70.0 °F - 59.0 °F 68% 29.99 in 10.0 mi SSE 20.7 mph 31.1 mph N/A   Clear
10:53 AM 73.0 °F - 61.0 °F 66% 30.04 in 10.0 mi SSE 13.8 mph - N/A   Clear
11:53 AM 75.9 °F - 61.0 °F 60% 30.03 in 10.0 mi South 20.7 mph 29.9 mph N/A   Partly Cloudy
12:53 PM 78.1 °F - 63.0 °F 60% 30.03 in 10.0 mi SSE 18.4 mph 28.8 mph N/A   Clear
1:53 PM 81.0 °F 82.5 °F 64.0 °F 56% 30.04 in 10.0 mi SSE 16.1 mph 27.6 mph N/A   Partly Cloudy
2:53 PM 81.0 °F 82.2 °F 63.0 °F 54% 30.04 in 10.0 mi South 16.1 mph 24.2 mph N/A   Clear
3:53 PM 79.0 °F - 63.0 °F 58% 30.04 in 10.0 mi South 15.0 mph 27.6 mph N/A   Mostly Cloudy
4:53 PM 80.1 °F 81.7 °F 64.0 °F 58% 30.03 in 10.0 mi SSE 12.7 mph 21.9 mph N/A   Overcast
5:53 PM 77.0 °F - 66.0 °F 69% 30.04 in 10.0 mi SE 11.5 mph 19.6 mph N/A   Overcast
6:53 PM 75.9 °F - 66.0 °F 71% 30.04 in 10.0 mi SE 11.5 mph 21.9 mph N/A   Overcast
7:53 PM 75.0 °F - 64.9 °F 71% 30.03 in 10.0 mi SE 11.5 mph 21.9 mph N/A   Partly Cloudy
8:53 PM 73.0 °F - 64.0 °F 73% 30.03 in 10.0 mi SE 11.5 mph - N/A   Mostly Cloudy
9:53 PM 71.1 °F - 64.9 °F 81% 30.05 in 10.0 mi SE 11.5 mph - N/A   Clear
10:53 PM 71.1 °F - 64.9 °F 81% 30.05 in 10.0 mi SSE 10.4 mph - N/A   Overcast
11:53 PM 70.0 °F - 64.9 °F 84% 30.06 in 10.0 mi SE 9.2 mph - N/A   Overcast